SCP
0 0 0 0 0 0 0 0 0 0 0 0 0 0 0 0 0 0 0 0 0 0 0 0 0 0 0 0 0 0 0 0 0 0 0 0 0 0 0 0 0 0 0
0 0 0 0 0 0 0 0 0 0 0 0 0 0 0 0 0 0 0 0 0 0 0 0 0 0 0 0 0 0 0 0 0 0 0 0 0 0 0 0 0 0 0
0 0 0 0 0 0 0 0 0 0 0 0 0 0 0 0 0 0 0 0 0 0 0 0 0 0 0 0 0 0 0 0 0 0 0 0 0 0 0 0 0 0 0
0 0 0 0 0 0 0 0 0 0 0 0 0 0 0 0 0 0 0 0 0 0 0 0 0 0 0 0 0 0 0 0 0 0 0 0 0 0 0 0 0 0 0
0 0 0 0 0 0 0 0 0 0 0 0 0 0 0 0 0 0 0 0 0 0 0 0 0 0 0 0 0 0 0 0 0 0 0 0 0 0 0 0 0 0 0
0 0 0 0 0 0 0 0 0 0 0 0 0 0 0 0 0 0 0 0 0 0 0 0 0 0 0 0 0 0 0 0 0 0 0 0 0 0 0 0 0 0 0
0 0 0 0 0 0 0 0 0 0 0 0 0 0 0 0 0 0 0 0 0 0 0 0 0 0 0 0 0 0 0 0 0 0 0 0 0 0 0 0 0 0 0
0 0 0 0 0 0 0 0 0 0 0 0 0 0 0 0 0 0 0 0 0 0 0 0 0 0 0 0 0 0 0 0 0 0 0 0 0 0 0 0 0 0 0
0 0 0 0 0 0 0 0 0 0 0 0 0 0 0 0 0 0 0 0 0 0 0 0 0 0 0 0 0 0 0 0 0 0 0 0 0 0 0 0 0 0 0
0 0 0 0 0 0 0 0 0 0 0 0 0 0 0 0 0 0 0 0 0 0 0 0 0 0 0 0 0 0 0 0 0 0 0 0 0 0 0 0 0 0 0
0 0 0 0 0 0 0 0 0 0 0 0 0 0 0 0 0 0 0 0 0 0 0 0 0 0 0 0 0 0 0 0 0 0 0 0 0 0 0 0 0 0 0
0 0 0 0 0 0 0 0 0 0 0 0 0 0 0 0 0 0 0 0 0 0 0 0 0 0 0 0 0 0 0 0 0 0 0 0 0 0 0 0 0 0 0
0 0 0 0 0 0 0 0 0 0 0 0 0 0 0 0 0 0 0 0 0 0 0 0 0 0 0 0 0 0 0 0 0 0 0 0 0 0 0 0 0 0 0
0 0 0 0 0 0 0 0 0 0 0 0 0 0 0 0 0 0 0 0 0 0 0 0 0 0 0 0 0 0 0 0 0 0 0 0 0 0 0 0 0 0 0
0 0 0 0 0 0 0 0 0 0 0 0 0 0 0 0 0 0 0 0 0 0 0 0 0 0 0 0 0 0 0 0 0 0 0 0 0 0 0 0 0 0 0
0 0 0 0 0 0 0 0 0 0 0 0 0 0 0 0 0 0 0 0 0 0 0 0 0 0 0 0 0 0 0 0 0 0 0 0 0 0 0 0 0 0 0
0 0 0 0 0 0 0 0 0 0 0 0 0 0 0 0 0 0 0 0 0 0 0 0 0 0 0 0 0 0 0 0 0 0 0 0 0 0 0 0 0 0 0
0 0 0 0 0 0 0 0 0 0 0 0 0 0 0 0 0 0 0 0 0 0 0 0 0 0 0 0 0 0 0 0 0 0 0 0 0 0 0 0 0 0 0
0 0 0 0 0 0 0 0 0 0 0 0 0 0 0 0 0 0 0 0 0 0 0 0 0 0 0 0 0 0 0 0 0 0 0 0 0 0 0 0 0 0 0
0 0 0 0 0 0 0 0 0 0 0 0 0 0 0 0 0 0 0 0 0 0 0 0 0 0 0 0 0 0 0 0 0 0 0 0 0 0 0 0 0 0 0
0 0 0 0 0 0 0 0 0 0 0 0 0 0 0 0 0 0 0 0 0 0 0 0 0 0 0 0 0 0 0 0 0 0 0 0 0 0 0 0 0 0 0
0 0 0 0 0 0 0 0 0 0 0 0 0 0 0 0 0 0 0 0 0 0 0 0 0 0 0 0 0 0 0 0 0 0 0 0 0 0 0 0 0 0 0
0 0 0 0 0 0 0 0 0 0 0 0 0 0 0 0 0 0 0 0 0 0 0 0 0 0 0 0 0 0 0 0 0 0 0 0 0 0 0 0 0 0 0
0 0 0 0 0 0 0 0 0 0 0 0 0 0 0 0 0 0 0 0 0 0 0 0 0 0 0 0 0 0 0 0 0 0 0 0 0 0 0 0 0 0 0
0 0 0 0 0 0 0 0 0 0 0 0 0 0 0 0 0 0 0 0 0 0 0 0 0 0 0 0 0 0 0 0 0 0 0 0 0 0 0 0 0 0 0
0 0 0 0 0 0 0 0 0 0 0 0 0 0 0 0 0 0 0 0 0 0 0 0 0 0 0 0 0 0 0 0 0 0 0 0 0 0 0 0 0 0 0
Wind_Speed
15 12 14 14 13 14 15 16 15 14 12 9 10 9 9 8 8 8 10 11 10 11 10 8 8 8 7 7 7 5 4 4 3 2 1 1 0 2 3 3 4 4 4
10 11 13 13 16 17 17 16 17 16 14 12 10 7 6 5 7 6 9 11 12 11 10 10 9 9 8 8 8 6 4 4 4 4 3 2 1 2 3 3 4 5 4
14 13 14 16 17 18 19 17 19 18 16 12 6 4 4 3 5 8 10 12 13 13 12 12 10 10 10 9 10 9 8 6 6 5 5 5 5 2 2 4 4 5 4
13 13 14 15 17 20 18 18 18 17 15 14 11 11 12 13 13 10 10 10 12 13 13 13 12 11 10 10 10 10 8 7 6 5 4 3 4 4 3 2 3 4 5
15 16 16 18 19 18 17 16 16 16 16 15 16 15 15 12 7 7 8 10 11 12 13 13 12 12 11 11 11 11 11 9 8 6 4 4 3 3 4 4 3 3 4
16 16 15 14 15 14 14 14 15 17 17 18 18 18 18 14 10 11 11 11 9 10 13 13 13 13 12 13 13 12 13 11 10 8 6 6 5 6 5 5 4 4 4
14 14 13 13 14 14 15 15 16 18 17 18 19 19 19 17 17 14 13 11 10 11 14 14 14 13 14 12 11 11 12 13 12 11 9 8 7 5 6 5 4 4 3
12 13 14 13 14 15 15 16 17 18 17 18 19 18 17 14 13 15 12 12 12 12 11 14 14 14 13 12 12 11 11 10 12 13 12 9 8 7 6 6 6 4 3
11 10 10 10 11 12 14 16 17 17 16 18 17 16 16 16 15 13 13 10 10 9 11 12 14 14 14 13 12 11 13 11 12 12 12 10 8 7 7 6 6 8 7
8 7 7 7 8 9 10 11 13 15 15 15 15 13 15 16 15 12 13 13 12 11 11 13 14 14 14 13 13 12 11 12 12 10 11 12 8 7 7 7 7 7 7
8 7 6 5 5 5 6 8 9 10 10 11 12 12 12 13 13 13 14 14 12 12 13 13 13 14 14 14 14 14 12 14 13 12 13 13 11 9 8 7 7 7 6
6 5 5 4 3 4 4 6 7 8 9 9 9 10 11 11 12 14 14 13 13 12 13 12 13 14 14 14 15 16 15 15 16 14 14 14 10 12 9 8 9 8 6
5 4 4 4 4 4 4 4 5 6 6 6 7 8 8 9 11 11 10 10 11 11 11 12 14 14 14 14 15 15 15 16 15 14 15 14 12 13 9 9 9 7 6
6 5 5 5 5 5 5 5 5 4 4 5 5 7 7 8 8 7 7 8 9 10 10 11 12 12 13 13 14 14 14 14 13 13 13 13 14 15 13 11 10 8 7
6 7 7 6 5 5 5 5 5 4 4 4 5 6 5 4 4 5 5 5 6 7 8 8 9 9 9 10 11 11 12 12 12 11 11 11 13 14 12 10 10 11 8
9 8 8 7 7 7 6 5 5 5 4 5 5 3 2 2 3 3 3 3 4 4 5 6 7 7 7 9 13 11 10 10 10 10 9 9 10 12 14 14 15 15 13
10 10 9 8 8 7 7 7 6 4 4 4 4 2 2 2 2 2 2 3 3 3 4 4 5 6 6 8 10 12 9 8 9 9 7 6 6 8 8 10 12 12 13
10 9 8 7 6 5 5 4 3 3 3 3 2 2 2 2 1 1 2 2 2 2 2 3 3 3 4 5 8 9 8 6 6 6 7 7 7 7 8 7 7 6 6
9 8 6 5 4 3 4 4 3 2 2 2 2 2 2 2 1 1 2 1 1 1 1 1 2 2 3 4 6 6 3 3 4 3 4 5 6 10 12 9 8 6 4
5 5 3 3 2 2 3 5 4 3 3 2 2 2 2 2 2 2 1 0 0 1 0 1 1 1 2 3 4 5 2 3 2 2 2 5 7 10 14 9 9 9 7
5 4 4 3 2 2 5 5 4 2 1 2 2 2 2 2 1 1 1 1 1 1 1 1 1 1 2 3 4 5 2 3 3 3 3 3 9 12 14 10 7 8 8
4 4 5 4 3 3 5 5 3 1 2 3 3 2 2 1 1 2 2 2 1 1 1 1 1 1 1 2 3 4 4 3 3 3 2 4 9 12 12 8 8 12 10
4 5 7 6 4 4 4 5 3 2 3 4 3 3 3 2 2 2 2 2 1 1 1 0 1 1 1 2 3 2 2 3 2 2 4 5 8 9 8 9 12 10 7
5 5 7 7 5 4 4 4 3 3 4 4 3 3 3 3 3 2 2 2 1 1 1 0 1 1 1 1 1 1 0 2 2 2 3 6 7 6 5 6 7 5 6
5 5 6 6 5 4 4 4 3 2 4 5 4 3 3 3 3 3 3 2 2 1 1 0 0 1 2 2 2 1 1 1 2 3 2 2 3 3 3 4 4 4 5
5 6 6 6 5 4 4 5 4 2 4 5 4 3 2 2 2 3 3 7 5 6 6 4 2 1 2 3 2 3 2 3 6 3 3 3 4 4 5 5 5 5 6
Wind_Direction
227 215 209 205 200 198 198 198 198 196 190 190 192 194 201 199 199 200 198 198 197 194 193 196 195 193 196 198 191 180 185 197 159 128 111 8 236 183 177 159 151 151 146
231 217 208 202 202 202 202 201 202 198 197 200 199 197 194 199 204 202 203 202 200 198 198 198 198 198 199 199 196 184 180 193 175 156 152 199 248 227 189 171 167 162 152
224 217 209 206 205 205 204 203 204 201 200 195 183 173 176 187 200 208 210 208 204 202 202 202 201 200 200 204 203 194 189 198 200 186 167 177 208 194 193 198 182 172 167
226 219 212 208 207 209 206 205 204 202 199 193 191 190 200 208 210 208 209 207 207 207 206 205 204 205 205 207 205 202 199 190 198 209 213 191 162 165 187 203 192 185 184
226 222 216 212 210 208 205 205 203 203 198 196 200 202 212 218 212 204 207 210 210 212 210 209 208 210 210 211 206 203 204 202 201 195 187 200 200 171 164 194 194 200 202
230 227 223 215 213 208 204 202 201 205 200 200 203 207 213 213 207 207 211 213 213 214 214 212 213 214 214 213 212 208 209 210 208 204 193 180 181 190 184 187 186 198 199
227 226 221 214 213 207 204 202 203 207 203 202 206 210 214 213 215 214 215 213 214 216 216 212 215 215 217 215 211 211 213 212 210 211 212 210 207 179 178 182 172 177 181
228 225 221 215 213 209 206 204 206 209 204 205 210 212 213 214 219 219 216 215 218 220 214 211 216 217 216 214 211 214 216 213 216 218 216 216 215 201 190 180 166 169 187
232 227 223 218 215 211 207 205 207 210 208 208 210 213 213 215 219 218 217 220 221 217 210 210 216 218 217 216 213 218 218 216 219 220 219 220 218 210 208 193 182 179 194
233 228 223 220 217 213 210 207 209 212 211 209 211 214 214 216 219 217 218 219 220 215 210 212 215 217 217 216 215 220 219 219 221 219 218 220 217 212 208 205 201 196 198
219 220 222 220 217 213 206 205 209 212 213 212 214 215 217 217 217 220 222 222 220 216 216 215 215 216 217 215 216 221 217 220 223 218 219 221 212 211 209 204 200 201 187
210 210 210 205 200 203 203 205 207 211 215 213 214 218 220 218 219 223 225 222 221 218 217 215 216 217 217 215 216 220 219 220 222 220 218 220 211 213 207 202 203 201 189
211 203 199 202 206 208 208 209 211 215 216 209 212 218 219 219 223 226 225 220 220 220 217 215 218 219 218 217 217 219 220 221 222 218 217 216 207 210 206 202 202 197 185
212 210 216 219 217 215 214 215 221 215 207 202 209 220 223 224 227 228 225 222 219 219 219 219 221 220 218 218 218 219 221 222 222 218 217 214 209 209 203 201 197 184 176
220 218 219 221 221 225 228 225 226 216 199 199 213 225 225 226 230 233 232 228 223 223 222 221 223 222 220 219 217 218 220 220 221 219 218 215 211 209 201 197 191 181 177
223 225 225 222 220 221 224 225 227 219 192 202 222 227 223 227 237 246 247 239 233 229 223 223 223 225 224 222 215 212 217 218 218 219 217 212 207 208 204 203 194 186 180
223 221 220 218 218 217 214 216 220 201 186 202 215 211 208 224 242 258 256 252 249 239 233 232 226 231 236 228 220 215 215 217 219 217 213 211 207 199 199 199 193 197 198
223 223 221 221 221 218 211 207 188 177 185 198 208 195 186 215 239 255 263 271 280 269 257 253 245 243 250 239 230 223 223 227 221 211 205 205 201 197 188 181 183 190 197
218 219 215 210 203 201 191 162 157 157 169 197 204 191 177 194 212 239 262 272 273 277 281 294 269 259 270 252 235 218 217 226 229 216 201 197 198 195 183 177 178 179 186
207 201 187 163 161 181 149 141 153 154 186 201 188 164 161 177 199 218 226 243 250 280 334 324 318 284 284 278 247 215 201 213 212 198 199 205 200 191 185 182 180 185 175
189 167 144 132 138 131 131 137 138 167 186 136 125 125 134 149 162 153 128 117 104 90 72 31 7 353 318 301 269 224 202 203 196 198 202 207 202 198 196 191 189 184 156
166 151 133 115 81 88 122 128 130 120 105 111 112 108 101 101 114 124 117 111 117 114 87 49 359 356 345 314 284 245 222 197 193 203 195 198 199 201 198 191 178 164 149
146 128 126 114 84 63 99 121 106 93 107 109 107 101 96 86 89 110 113 100 97 99 87 50 322 326 340 330 320 289 240 196 175 175 178 186 195 195 192 186 172 160 159
124 121 121 119 99 64 62 70 74 97 113 113 107 100 100 88 73 73 84 93 95 92 76 4 315 321 336 338 347 354 63 149 128 125 153 174 183 181 164 166 172 172 175
107 112 121 119 104 77 60 44 41 90 112 108 100 93 88 94 83 70 60 71 60 64 80 68 341 325 319 312 288 248 189 159 156 136 133 153 159 170 171 171 176 177 179
99 101 100 100 91 75 58 30 17 55 107 107 99 92 88 81 79 79 58 51 55 50 48 43 34 355 323 322 301 273 244 198 169 151 172 183 185 190 190 191 193 196 200